TITAN 3C TRANSTAGE DEB, 1859

Orbit data source: Space-Track

TITAN 3C TRANSTAGE DEB, 1859 is space debris in LEO originally from a launch on Fri, 15 Oct 1965 UTC launched from the Air Force Eastern Test Range (AFETR). Debris objects in space refer to the collection of defunct objects orbiting the Earth. Examples of debris include non-operational satellites, rocket bodies, and fragments generated from explosions, collisions, or faulty payload assembly.

Loading next visibility...
Identifier
1859, 1965-082ES
Orbit
LEO
Last TLE update
21 hours ago
Origin
Manufacturer
Unknown
Mission
Spacecraft
Bus & Motor
Unknown
Mass
Unknown
Launch date (UTC)
1965-10-15 (60 years ago)
Launch vehicle
Unknown
Launch site
Air Force Eastern Test Range (AFETR)
Object type
Payload
Rocket body
Debris
Shape & HBR
Unknown
Radar Cross Section
Medium (>0.1 m² and <1 m²)

Expand to show TLE details & history

TLE from 21 hours ago
0 TITAN 3C TRANSTAGE DEB
1 01859U 65082ES  25128.96369782  .00000822  00000-0  20060-3 0  9995
2 01859  32.1273 345.8794 0067080  38.7969 321.7464 14.48562397128407
Epoch: 2025-05-08T23:07Z
Definitive object data (Epoch: 2025-05-08T23:07:43.491Z)
Latitude
0.00001°
Longitude
131.92155°
Altitude
691.694 km
Speed
7.532 km/s
True Right ascension
23h 03m 31s
True Declination
0° 00' 00"
Sunlit
Object was in daylight at TLE epoch
Visualization TLE readout
Latitude
-29.65459°
Longitude
62.41672°
Altitude
756.624 km
Speed
7.467 km/s
Apparent Right ascension
17h 34m 49s
Apparent Declination
-35° 10' 21"
Sunlit
Object is in full shadow
Visualization observer readout
Local Sidereal Time
04:30:18
Azimuth
285.282° WNW
Elevation
-76.384°
Doppler factor
1
Orbital elements
Apogee altitude
781.629 km
Perigee altitude
686.213 km
Semi-major axis
7,112.058 km
Eccentricity
0.006708
Inclination
32.1273°
RAAN
345.8794°
Arg. of periapsis
38.7969°
True anomaly
321.26733°
Mean anomaly
321.7464°
Eccentric anomaly
321.50718°
Mean motion
3.61868 °/min
BSTAR
0.0002006
Orbital period
99.48 mins
Loading maneuver chart data...
Loading SW <> Apogee altitude chart data...

TITAN 3C TRANSTAGE DEB Visibility forecast

Observer location: undefined°, undefined°

Span
Click to sort rows by Start time (UTC) header in descending order
Start Az.
Max El. time (UTC)
Max El. Az.
Max El.
End time (UTC)
End Az.
8 mins2025-05-09 21:00:11.145Z244.325° WSW2025-05-09 21:04:11.145Z182.63° SSW28.34°2025-05-09 21:08:11.145Z124.05° SE
5 mins2025-05-09 22:47:11.145Z224.921° SW2025-05-09 22:49:11.145Z193.725° SSW19.336°2025-05-09 22:52:11.145Z155.172° SSE
6 mins2025-05-10 18:25:11.145Z203.287° SW2025-05-10 18:27:11.145Z169.261° S23.13°2025-05-10 18:31:11.145Z112.534° SE
7 mins2025-05-10 20:09:11.145Z234.01° WSW2025-05-10 20:12:11.145Z179.832° S28.768°2025-05-10 20:16:11.145Z119.847° SE
|